Back to catalog

STARLINK-33965

AliveCommunicationsVLEO
NORAD 64755·PAYLOAD·🇺🇸 United States

Launched Jul 8, 2025 from Cape Canaveral Space Force Station

Loading…

Next Passes (next 24 hours)

TLE

FreshSource: CelesTrak SupGP

Epoch: Sep 14, 2026, 20:39 UTC

1 64755C 25147A   26257.86090278  .00003148  00000+0  93034-4 0  2573
2 64755  53.1577  79.8943 0001184  84.3623 276.8292 15.34381312    15

Track STARLINK-33965 in real time with AllMySat

Download on the App Store